Location: Newark
(45.4422°N, 16.2769°E)
Time: 02:43:33
(UTC+00:00)

Courier 1B Rocket - Pass Details

Date: 13 December 2019
Orbit: 920 x 1202 km, 28.2° (Epoch: 23 January)

Event Time Altitude Azimuth Distance (km) Brightness Sun altitude
Rises 07:05:33 0° 245° (WSW) 3,774 7.8 4.7°
Reaches altitude 10° 07:09:32 10° 224° (SW) 2,761 7.4 5.3°
Maximum altitude 07:13:10 15° 190° (S) 2,341 7.5 5.7°
Drops below altitude 10° 07:16:43 10° 156° (SSE) 2,667 8.8 6.2°
Sets 07:20:27 0° 135° (SE) 3,576 10.8 6.7°
